INTELSAT 22 (IS-22)

Last updated on Fri Oct 11 2024 00:02:39 GMT+0000 (Coordinated Universal Time)

1 38098U 12011A 24284.32132698 -.00000054 00000+0 00000+0 0 9995 2 38098 0.0173 138.0446 0001875 72.7343 356.4123 1.00271129 1024
UTC large
Height (km)
Speed (km/s)
/
Latitude / Longitude
Inclination (degrees)
Orbital Period (minutes)
Azimuth
Elevation
Range (km)
Doppler Factor

Next 0 passes for location: London (51.5072 / 0.1276)

Sorry there are no passes over London.